owner,sensor,date,latitude,longitude,vertical_datum,wind_speed,wind_to_direction,wind_speed_of_gust,qcFlag 
TABS,ioos:station:wmo:42047:1,2006-09-01T00:00:00Z,27.8966,-93.5973,4.0,5.12035155,0.671192154,6.59,'11111222,11111222,11111222' 
TABS,ioos:station:wmo:42047:1,2006-09-01T00:30:00Z,27.8966,-93.5973,4.0,4.819979253,356.3122388,6.09,'11111222,11111222,11111222' 
TABS,ioos:station:wmo:42047:1,2006-09-01T01:00:00Z,27.8966,-93.5973,4.0,4.721546357,4.007584712,6.58,'11111222,11111222,11111222' 
TABS,ioos:station:wmo:42047:1,2006-09-01T01:30:00Z,27.8966,-93.5973,4.0,4.071719538,16.69899473,5.23,'11111222,11111222,11111222' 
TABS,ioos:station:wmo:42047:1,2006-09-01T02:00:00Z,27.8966,-93.5973,4.0,4.354124481,23.26743994,5.68,'11111222,11111222,11111222' 
TABS,ioos:station:wmo:42047:1,2006-09-01T02:30:00Z,27.8966,-93.5973,4.0,4.327447284,14.99940118,6.05,'11111222,11111222,11111222' 
TABS,ioos:station:wmo:42047:1,2006-09-01T03:00:00Z,27.8966,-93.5973,4.0,3.96920647,24.56315247,5.39,'11111222,11111222,11111222' 
TABS,ioos:station:wmo:42047:1,2006-09-01T03:30:00Z,27.8966,-93.5973,4.0,3.1283542,24.35274177,4.38,'11111222,11111222,11111222' 
TABS,ioos:station:wmo:42047:1,2006-09-01T04:00:00Z,27.8966,-93.5973,4.0,2.574975728,29.5514086,4.28,'11111222,11111222,11111222' 
TABS,ioos:station:wmo:42047:1,2006-09-01T04:30:00Z,27.8966,-93.5973,4.0,2.12200377,17.83699783,3.7,'11111222,11111222,11111222' 
TABS,ioos:station:wmo:42047:1,2006-09-01T05:00:00Z,27.8966,-93.5973,4.0,1.955019181,14.81790214,3.09,'11111222,11111222,11111222' 
TABS,ioos:station:wmo:42047:1,2006-09-01T05:30:00Z,27.8966,-93.5973,4.0,1.633768649,39.53585428,2.83,'11111222,11111222,11111222' 
TABS,ioos:station:wmo:42047:1,2006-09-01T06:00:00Z,27.8966,-93.5973,4.0,1.423411395,41.86722644,2.35,'11111222,11111222,11111222' 
TABS,ioos:station:wmo:42047:1,2006-09-01T06:30:00Z,27.8966,-93.5973,4.0,1.814662503,23.03249227,2.86,'11111222,11111222,11111222' 
TABS,ioos:station:wmo:42047:1,2006-09-01T07:00:00Z,27.8966,-93.5973,4.0,1.698587649,12.23587244,2.75,'11111222,11111222,11111222' 
TABS,ioos:station:wmo:42047:1,2006-09-01T07:30:00Z,27.8966,-93.5973,4.0,0.948736001,32.51722412,1.74,'11111222,11111222,11111222' 
TABS,ioos:station:wmo:42047:1,2006-09-01T08:00:00Z,27.8966,-93.5973,4.0,1.05394497,33.38822504,1.94,'11111222,11111222,11111222' 
TABS,ioos:station:wmo:42047:1,2006-09-01T08:30:00Z,27.8966,-93.5973,4.0,0.793221281,326.3098008,1.88,'11111222,11111222,11111222' 
TABS,ioos:station:wmo:42047:1,2006-09-01T09:00:00Z,27.8966,-93.5973,4.0,1.247757989,26.15406416,1.88,'11111222,11111222,11111222' 
TABS,ioos:station:wmo:42047:1,2006-09-01T09:30:00Z,27.8966,-93.5973,4.0,0.491934955,63.43459003,1.47,'11111222,11111222,11111222' 
TABS,ioos:station:wmo:42047:1,2006-09-01T10:00:00Z,27.8966,-93.5973,4.0,0.700071425,68.19822058,1.74,'11111222,11111222,11111222' 
TABS,ioos:station:wmo:42047:1,2006-09-01T10:30:00Z,27.8966,-93.5973,4.0,1.014938422,95.65482852,1.81,'11111222,11111222,11111222' 
TABS,ioos:station:wmo:42047:1,2006-09-01T11:00:00Z,27.8966,-93.5973,4.0,1.447342392,101.1550546,2.31,'11111222,11111222,11111222' 
TABS,ioos:station:wmo:42047:1,2006-09-01T11:30:00Z,27.8966,-93.5973,4.0,1.488086019,53.74582612,2.18,'11111222,11111222,11111222' 
TABS,ioos:station:wmo:42047:1,2006-09-01T12:00:00Z,27.8966,-93.5973,4.0,1.664602055,82.40495347,2.75,'11111222,11111222,11111222' 
TABS,ioos:station:wmo:42047:1,2006-09-01T12:30:00Z,27.8966,-93.5973,4.0,2.030492551,12.80402566,3.41,'11111222,11111222,11111222' 
TABS,ioos:station:wmo:42047:1,2006-09-01T13:00:00Z,27.8966,-93.5973,4.0,2.192373143,24.81137784,3.13,'11111222,11111222,11111222' 
TABS,ioos:station:wmo:42047:1,2006-09-01T13:30:00Z,27.8966,-93.5973,4.0,2.398853893,51.60097239,3.36,'11111222,11111222,11111222' 
TABS,ioos:station:wmo:42047:1,2006-09-01T14:00:00Z,27.8966,-93.5973,4.0,2.391401263,29.56629591,3.99,'11111222,11111222,11111222' 
TABS,ioos:station:wmo:42047:1,2006-09-01T14:30:00Z,27.8966,-93.5973,4.0,2.79177363,28.21707941,4.14,'11111222,11111222,11111222' 
TABS,ioos:station:wmo:42047:1,2006-09-01T15:00:00Z,27.8966,-93.5973,4.0,3.150936369,34.39585085,4.27,'11111222,11111222,11111222' 
TABS,ioos:station:wmo:42047:1,2006-09-01T15:30:00Z,27.8966,-93.5973,4.0,2.062934803,356.9432162,3.54,'11111222,11111222,11111222' 
TABS,ioos:station:wmo:42047:1,2006-09-01T16:00:00Z,27.8966,-93.5973,4.0,2.310367936,349.2735202,4.44,'11111222,11111222,11111222' 
TABS,ioos:station:wmo:42047:1,2006-09-01T16:30:00Z,27.8966,-93.5973,4.0,2.134689673,6.725290912,3.63,'11111222,11111222,11111222' 
TABS,ioos:station:wmo:42047:1,2006-09-01T17:00:00Z,27.8966,-93.5973,4.0,1.641036258,353.3511599,3.03,'11111222,11111222,11111222' 
TABS,ioos:station:wmo:42047:1,2006-09-01T17:30:00Z,27.8966,-93.5973,4.0,1.775640729,25.69891537,2.5,'11111222,11111222,11111222' 
TABS,ioos:station:wmo:42047:1,2006-09-01T18:00:00Z,27.8966,-93.5973,4.0,1.356945098,330.4120953,2.6,'11111222,11111222,11111222' 
TABS,ioos:station:wmo:42047:1,2006-09-01T18:30:00Z,27.8966,-93.5973,4.0,2.271079039,349.0857021,3.56,'11111222,11111222,11111222' 
TABS,ioos:station:wmo:42047:1,2006-09-01T19:00:00Z,27.8966,-93.5973,4.0,2.116246677,326.760347,3.77,'11111222,11111222,11111222' 
TABS,ioos:station:wmo:42047:1,2006-09-01T19:30:00Z,27.8966,-93.5973,4.0,2.117474911,350.7599093,3.02,'11111222,11111222,11111222' 
TABS,ioos:station:wmo:42047:1,2006-09-01T20:00:00Z,27.8966,-93.5973,4.0,2.070603777,319.3085496,3.23,'11111222,11111222,11111222' 
TABS,ioos:station:wmo:42047:1,2006-09-01T20:30:00Z,27.8966,-93.5973,4.0,2.268501708,335.2423472,3.38,'11111222,11111222,11111222' 
TABS,ioos:station:wmo:42047:1,2006-09-01T21:00:00Z,27.8966,-93.5973,4.0,2.105231579,308.8297341,3.12,'11111222,11111222,11111222' 
TABS,ioos:station:wmo:42047:1,2006-09-01T21:30:00Z,27.8966,-93.5973,4.0,2.226117697,328.5946993,3.41,'11111222,11111222,11111222' 
TABS,ioos:station:wmo:42047:1,2006-09-01T22:00:00Z,27.8966,-93.5973,4.0,2.715916052,331.6419472,4.11,'11111222,11111222,11111222' 
TABS,ioos:station:wmo:42047:1,2006-09-01T22:30:00Z,27.8966,-93.5973,4.0,3.035951251,319.5418798,4.82,'11111222,11111222,11111222' 
TABS,ioos:station:wmo:42047:1,2006-09-01T23:00:00Z,27.8966,-93.5973,4.0,3.391784191,319.7833645,4.45,'11111222,11111222,11111222' 
TABS,ioos:station:wmo:42047:1,2006-09-01T23:30:00Z,27.8966,-93.5973,4.0,3.345205524,318.8784102,4.79,'11111222,11111222,11111222' 
TABS,ioos:station:wmo:42047:1,2006-09-02T00:00:00Z,27.8966,-93.5973,4.0,3.154837555,316.5411098,4.35,'11111222,11111222,11111222' 
TABS,ioos:station:wmo:42047:1,2006-09-02T00:30:00Z,27.8966,-93.5973,4.0,3.977700341,331.6308096,5.34,'11111222,11111222,11111222' 
TABS,ioos:station:wmo:42047:1,2006-09-02T01:00:00Z,27.8966,-93.5973,4.0,3.551408171,342.1260877,5.68,'11111222,11111222,11111222' 
TABS,ioos:station:wmo:42047:1,2006-09-02T01:30:00Z,27.8966,-93.5973,4.0,3.254842546,346.1343553,5.07,'11111222,11111222,11111222' 
TABS,ioos:station:wmo:42047:1,2006-09-02T02:00:00Z,27.8966,-93.5973,4.0,3.62088387,1.265785581,5.76,'11111222,11111222,11111222' 
TABS,ioos:station:wmo:42047:1,2006-09-02T02:30:00Z,27.8966,-93.5973,4.0,3.497570585,33.09912245,4.7,'11111222,11111222,11111222' 
TABS,ioos:station:wmo:42047:1,2006-09-02T03:00:00Z,27.8966,-93.5973,4.0,3.531019683,42.81913996,4.8,'11111222,11111222,11111222' 
TABS,ioos:station:wmo:42047:1,2006-09-02T03:30:00Z,27.8966,-93.5973,4.0,2.732105415,36.36628467,4.15,'11111222,11111222,11111222' 
TABS,ioos:station:wmo:42047:1,2006-09-02T04:00:00Z,27.8966,-93.5973,4.0,2.764000724,36.91105946,4.46,'11111222,11111222,11111222' 
TABS,ioos:station:wmo:42047:1,2006-09-02T04:30:00Z,27.8966,-93.5973,4.0,2.687154629,44.39659453,3.89,'11111222,11111222,11111222' 
TABS,ioos:station:wmo:42047:1,2006-09-02T05:00:00Z,27.8966,-93.5973,4.0,2.48276056,43.53088703,3.91,'11111222,11111222,11111222' 
TABS,ioos:station:wmo:42047:1,2006-09-02T05:30:00Z,27.8966,-93.5973,4.0,1.794937325,35.01787837,2.88,'11111222,11111222,11111222' 
TABS,ioos:station:wmo:42047:1,2006-09-02T06:00:00Z,27.8966,-93.5973,4.0,2.709335712,75.24528693,3.65,'11111222,11111222,11111222' 
TABS,ioos:station:wmo:42047:1,2006-09-02T06:30:00Z,27.8966,-93.5973,4.0,3.262177187,53.7269416,4.5,'11111222,11111222,11111222' 
TABS,ioos:station:wmo:42047:1,2006-09-02T07:00:00Z,27.8966,-93.5973,4.0,2.4350154,83.63341774,3.55,'11111222,11111222,11111222' 
TABS,ioos:station:wmo:42047:1,2006-09-02T07:30:00Z,27.8966,-93.5973,4.0,2.080312477,30.6328347,3.6,'11111222,11111222,11111222' 
TABS,ioos:station:wmo:42047:1,2006-09-02T08:00:00Z,27.8966,-93.5973,4.0,2.059732992,5.571974315,3.11,'11111222,11111222,11111222' 
TABS,ioos:station:wmo:42047:1,2006-09-02T08:30:00Z,27.8966,-93.5973,4.0,2.125958607,7.024505238,3.24,'11111222,11111222,11111222' 
TABS,ioos:station:wmo:42047:1,2006-09-02T09:00:00Z,27.8966,-93.5973,4.0,3.662854078,9.744965287,5.21,'11111222,11111222,11111222' 
TABS,ioos:station:wmo:42047:1,2006-09-02T09:30:00Z,27.8966,-93.5973,4.0,3.376225703,7.145838326,5.04,'11111222,11111222,11111222' 
TABS,ioos:station:wmo:42047:1,2006-09-02T10:00:00Z,27.8966,-93.5973,4.0,3.835648576,8.848143495,5.51,'11111222,11111222,11111222' 
TABS,ioos:station:wmo:42047:1,2006-09-02T10:30:00Z,27.8966,-93.5973,4.0,4.250423508,0.808615511,6.13,'11111222,11111222,11111222' 
TABS,ioos:station:wmo:42047:1,2006-09-02T11:00:00Z,27.8966,-93.5973,4.0,4.288414625,20.75907279,5.51,'11111222,11111222,11111222' 
TABS,ioos:station:wmo:42047:1,2006-09-02T11:30:00Z,27.8966,-93.5973,4.0,4.06070191,26.6278795,6.13,'11111222,11111222,11111222' 
TABS,ioos:station:wmo:42047:1,2006-09-02T12:00:00Z,27.8966,-93.5973,4.0,4.48287854,40.47622273,7.18,'11111222,11111222,11111222' 
TABS,ioos:station:wmo:42047:1,2006-09-02T12:30:00Z,27.8966,-93.5973,4.0,4.224050189,33.8026389,6.02,'11111222,11111222,11111222' 
TABS,ioos:station:wmo:42047:1,2006-09-02T13:00:00Z,27.8966,-93.5973,4.0,4.220390977,40.48318803,5.32,'11111222,11111222,11111222' 
TABS,ioos:station:wmo:42047:1,2006-09-02T13:30:00Z,27.8966,-93.5973,4.0,4.164732885,41.69035577,5.97,'11111222,11111222,11111222' 
TABS,ioos:station:wmo:42047:1,2006-09-02T14:00:00Z,27.8966,-93.5973,4.0,4.847535456,54.57190396,6.38,'11111222,11111222,11111222' 
TABS,ioos:station:wmo:42047:1,2006-09-02T14:30:00Z,27.8966,-93.5973,4.0,4.870164268,63.53981607,6.49,'11111222,11111222,11111222' 
TABS,ioos:station:wmo:42047:1,2006-09-02T15:00:00Z,27.8966,-93.5973,4.0,4.431365478,54.55216634,5.78,'11111222,11111222,11111222' 
TABS,ioos:station:wmo:42047:1,2006-09-02T15:30:00Z,27.8966,-93.5973,4.0,4.224275086,55.70768843,5.66,'11111222,11111222,11111222' 
TABS,ioos:station:wmo:42047:1,2006-09-02T16:00:00Z,27.8966,-93.5973,4.0,4.327585932,45.37416032,5.99,'11111222,11111222,11111222' 
TABS,ioos:station:wmo:42047:1,2006-09-02T16:30:00Z,27.8966,-93.5973,4.0,4.161586236,57.76076963,6.3,'11111222,11111222,11111222' 
TABS,ioos:station:wmo:42047:1,2006-09-02T17:00:00Z,27.8966,-93.5973,4.0,4.369942791,44.81426216,5.76,'11111222,11111222,11111222' 
TABS,ioos:station:wmo:42047:1,2006-09-02T17:30:00Z,27.8966,-93.5973,4.0,4.504542152,45.62928145,5.85,'11111222,11111222,11111222' 
TABS,ioos:station:wmo:42047:1,2006-09-02T18:00:00Z,27.8966,-93.5973,4.0,4.742330651,52.45317402,6.49,'11111222,11111222,11111222' 
TABS,ioos:station:wmo:42047:1,2006-09-02T18:30:00Z,27.8966,-93.5973,4.0,4.822540824,60.56423155,6.37,'11111222,11111222,11111222' 
TABS,ioos:station:wmo:42047:1,2006-09-02T19:00:00Z,27.8966,-93.5973,4.0,4.471028964,56.77164198,6.17,'11111222,11111222,11111222' 
TABS,ioos:station:wmo:42047:1,2006-09-02T19:30:00Z,27.8966,-93.5973,4.0,4.273757129,47.08568963,5.73,'11111222,11111222,11111222' 
TABS,ioos:station:wmo:42047:1,2006-09-02T20:00:00Z,27.8966,-93.5973,4.0,3.960050505,36.58023148,5.66,'11111222,11111222,11111222' 
TABS,ioos:station:wmo:42047:1,2006-09-02T20:30:00Z,27.8966,-93.5973,4.0,3.892197323,47.290289,5.63,'11111222,11111222,11111222' 
TABS,ioos:station:wmo:42047:1,2006-09-02T21:00:00Z,27.8966,-93.5973,4.0,4.330288674,57.44727872,6.21,'11111222,11111222,11111222' 
TABS,ioos:station:wmo:42047:1,2006-09-02T21:30:00Z,27.8966,-93.5973,4.0,4.639676713,46.22227165,6.47,'11111222,11111222,11111222' 
TABS,ioos:station:wmo:42047:1,2006-09-02T22:00:00Z,27.8966,-93.5973,4.0,4.588125979,52.70517823,6.46,'11111222,11111222,11111222' 
TABS,ioos:station:wmo:42047:1,2006-09-02T22:30:00Z,27.8966,-93.5973,4.0,4.610878441,45.87838299,6.37,'11111222,11111222,11111222' 
TABS,ioos:station:wmo:42047:1,2006-09-02T23:00:00Z,27.8966,-93.5973,4.0,4.436440014,41.16131999,5.67,'11111222,11111222,11111222' 
TABS,ioos:station:wmo:42047:1,2006-09-02T23:30:00Z,27.8966,-93.5973,4.0,4.351976562,39.87269399,6.28,'11111222,11111222,11111222' 
TABS,ioos:station:wmo:42047:1,2006-09-03T00:00:00Z,27.8966,-93.5973,4.0,5.11981445,41.91204025,6.84,'11111222,11111222,11111222' 
TABS,ioos:station:wmo:42047:1,2006-09-03T00:30:00Z,27.8966,-93.5973,4.0,5.740601014,42.38751429,7.08,'11111222,11111222,11111222' 
TABS,ioos:station:wmo:42047:1,2006-09-03T01:00:00Z,27.8966,-93.5973,4.0,5.77169819,35.47968471,7.74,'11111222,11111222,11111222' 
TABS,ioos:station:wmo:42047:1,2006-09-03T01:30:00Z,27.8966,-93.5973,4.0,5.804498256,42.34641849,7.26,'11111222,11111222,11111222' 
TABS,ioos:station:wmo:42047:1,2006-09-03T02:00:00Z,27.8966,-93.5973,4.0,5.41084097,39.75103601,6.86,'11111222,11111222,11111222' 
TABS,ioos:station:wmo:42047:1,2006-09-03T02:30:00Z,27.8966,-93.5973,4.0,5.42706182,48.58532366,6.9,'11111222,11111222,11111222' 
TABS,ioos:station:wmo:42047:1,2006-09-03T03:00:00Z,27.8966,-93.5973,4.0,5.328461316,59.05433578,7.18,'11111222,11111222,11111222' 
TABS,ioos:station:wmo:42047:1,2006-09-03T03:30:00Z,27.8966,-93.5973,4.0,5.167059125,64.92245408,6.68,'11111222,11111222,11111222' 
TABS,ioos:station:wmo:42047:1,2006-09-03T04:00:00Z,27.8966,-93.5973,4.0,5.566830337,81.11258511,7.4,'11111222,11111222,11111222' 
TABS,ioos:station:wmo:42047:1,2006-09-03T04:30:00Z,27.8966,-93.5973,4.0,5.622277119,84.89742576,7.63,'11111222,11111222,11111222' 
TABS,ioos:station:wmo:42047:1,2006-09-03T05:00:00Z,27.8966,-93.5973,4.0,5.011985634,81.74016042,6.72,'11111222,11111222,11111222' 
TABS,ioos:station:wmo:42047:1,2006-09-03T05:30:00Z,27.8966,-93.5973,4.0,4.149469846,80.2875769,5.9,'11111222,11111222,11111222' 
TABS,ioos:station:wmo:42047:1,2006-09-03T06:00:00Z,27.8966,-93.5973,4.0,4.480546842,89.10440747,6.02,'11111222,11111222,11111222' 
TABS,ioos:station:wmo:42047:1,2006-09-03T06:30:00Z,27.8966,-93.5973,4.0,4.887289637,74.08642712,6.87,'11111222,11111222,11111222' 
TABS,ioos:station:wmo:42047:1,2006-09-03T07:00:00Z,27.8966,-93.5973,4.0,4.652139293,75.30620007,6.13,'11111222,11111222,11111222' 
TABS,ioos:station:wmo:42047:1,2006-09-03T07:30:00Z,27.8966,-93.5973,4.0,4.684111442,72.60911029,5.89,'11111222,11111222,11111222' 
TABS,ioos:station:wmo:42047:1,2006-09-03T08:00:00Z,27.8966,-93.5973,4.0,4.09444746,82.56215546,5.87,'11111222,11111222,11111222' 
TABS,ioos:station:wmo:42047:1,2006-09-03T08:30:00Z,27.8966,-93.5973,4.0,3.794430128,82.27523524,5.39,'11111222,11111222,11111222' 
TABS,ioos:station:wmo:42047:1,2006-09-03T09:00:00Z,27.8966,-93.5973,4.0,4.061329831,72.81391313,5.7,'11111222,11111222,11111222' 
TABS,ioos:station:wmo:42047:1,2006-09-03T09:30:00Z,27.8966,-93.5973,4.0,4.020447736,89.14448369,6.41,'11111222,11111222,11111222' 
TABS,ioos:station:wmo:42047:1,2006-09-03T10:00:00Z,27.8966,-93.5973,4.0,3.859637289,78.34031369,5.34,'11111222,11111222,11111222' 
TABS,ioos:station:wmo:42047:1,2006-09-03T10:30:00Z,27.8966,-93.5973,4.0,3.883297568,71.37804326,5.63,'11111222,11111222,11111222' 
TABS,ioos:station:wmo:42047:1,2006-09-03T11:00:00Z,27.8966,-93.5973,4.0,3.902166065,91.90956889,5.37,'11111222,11111222,11111222' 
TABS,ioos:station:wmo:42047:1,2006-09-03T11:30:00Z,27.8966,-93.5973,4.0,3.947302877,86.51379605,5.61,'11111222,11111222,11111222' 
TABS,ioos:station:wmo:42047:1,2006-09-03T12:00:00Z,27.8966,-93.5973,4.0,3.230061919,90.35518818,4.55,'11111222,11111222,11111222' 
TABS,ioos:station:wmo:42047:1,2006-09-03T12:30:00Z,27.8966,-93.5973,4.0,3.61509336,84.76211526,4.88,'11111222,11111222,11111222' 
TABS,ioos:station:wmo:42047:1,2006-09-03T13:00:00Z,27.8966,-93.5973,4.0,2.573285837,79.47569205,4.06,'11111222,11111222,11111222' 
TABS,ioos:station:wmo:42047:1,2006-09-03T13:30:00Z,27.8966,-93.5973,4.0,3.053735417,82.8513074,4.28,'11111222,11111222,11111222' 
TABS,ioos:station:wmo:42047:1,2006-09-03T14:00:00Z,27.8966,-93.5973,4.0,3.024913222,84.30784655,4.14,'11111222,11111222,11111222' 
TABS,ioos:station:wmo:42047:1,2006-09-03T14:30:00Z,27.8966,-93.5973,4.0,2.622136533,82.54934744,3.68,'11111222,11111222,11111222' 
TABS,ioos:station:wmo:42047:1,2006-09-03T15:00:00Z,27.8966,-93.5973,4.0,1.703555106,86.29737489,2.74,'11111222,11111222,11111222' 
TABS,ioos:station:wmo:42047:1,2006-09-03T15:30:00Z,27.8966,-93.5973,4.0,1.670269439,91.02957332,2.74,'11111222,11111222,11111222' 
TABS,ioos:station:wmo:42047:1,2006-09-03T16:00:00Z,27.8966,-93.5973,4.0,2.261194375,119.3995144,3.34,'11111222,11111222,11111222' 
TABS,ioos:station:wmo:42047:1,2006-09-03T16:30:00Z,27.8966,-93.5973,4.0,3.290243152,132.9065687,4.41,'11111222,11111222,11111222' 
TABS,ioos:station:wmo:42047:1,2006-09-03T17:00:00Z,27.8966,-93.5973,4.0,3.603234658,121.2640795,4.84,'11111222,11111222,11111222' 
TABS,ioos:station:wmo:42047:1,2006-09-03T17:30:00Z,27.8966,-93.5973,4.0,3.095884365,118.1381612,4.19,'11111222,11111222,11111222' 
TABS,ioos:station:wmo:42047:1,2006-09-03T18:00:00Z,27.8966,-93.5973,4.0,2.348275963,136.3806665,3.51,'11111222,11111222,11111222' 
TABS,ioos:station:wmo:42047:1,2006-09-03T18:30:00Z,27.8966,-93.5973,4.0,2.369155968,128.6601388,3.92,'11111222,11111222,11111222' 
TABS,ioos:station:wmo:42047:1,2006-09-03T19:00:00Z,27.8966,-93.5973,4.0,2.46058936,118.1276312,3.9,'11111222,11111222,11111222' 
TABS,ioos:station:wmo:42047:1,2006-09-03T19:30:00Z,27.8966,-93.5973,4.0,2.129835674,101.0992942,3.49,'11111222,11111222,11111222' 
TABS,ioos:station:wmo:42047:1,2006-09-03T20:00:00Z,27.8966,-93.5973,4.0,2.10793738,110.8427348,3.43,'11111222,11111222,11111222' 
TABS,ioos:station:wmo:42047:1,2006-09-03T20:30:00Z,27.8966,-93.5973,4.0,2.526994262,107.5031894,3.62,'11111222,11111222,11111222' 
TABS,ioos:station:wmo:42047:1,2006-09-03T21:00:00Z,27.8966,-93.5973,4.0,2.217746604,82.74640143,3.68,'11111222,11111222,11111222' 
TABS,ioos:station:wmo:42047:1,2006-09-03T21:30:00Z,27.8966,-93.5973,4.0,2.305319934,71.80045659,3.22,'11111222,11111222,11111222' 
TABS,ioos:station:wmo:42047:1,2006-09-03T22:00:00Z,27.8966,-93.5973,4.0,2.645146499,69.64639753,3.78,'11111222,11111222,11111222' 
TABS,ioos:station:wmo:42047:1,2006-09-03T22:30:00Z,27.8966,-93.5973,4.0,2.712489631,95.50081953,3.65,'11111222,11111222,11111222' 
TABS,ioos:station:wmo:42047:1,2006-09-03T23:00:00Z,27.8966,-93.5973,4.0,2.731483114,91.88860451,4.07,'11111222,11111222,11111222' 
TABS,ioos:station:wmo:42047:1,2006-09-03T23:30:00Z,27.8966,-93.5973,4.0,2.871114766,91.59709863,4.0,'11111222,11111222,11111222' 
TABS,ioos:station:wmo:42047:1,2006-09-04T00:00:00Z,27.8966,-93.5973,4.0,2.910532597,100.6926081,3.94,'11111222,11111222,11111222' 
TABS,ioos:station:wmo:42047:1,2006-09-04T00:30:00Z,27.8966,-93.5973,4.0,2.944350523,86.88452161,4.0,'11111222,11111222,11111222' 
TABS,ioos:station:wmo:42047:1,2006-09-04T01:00:00Z,27.8966,-93.5973,4.0,3.17493307,71.45053877,4.48,'11111222,11111222,11111222' 
TABS,ioos:station:wmo:42047:1,2006-09-04T01:30:00Z,27.8966,-93.5973,4.0,2.990150498,90.57527433,4.6,'11111222,11111222,11111222' 
TABS,ioos:station:wmo:42047:1,2006-09-04T02:00:00Z,27.8966,-93.5973,4.0,3.305888685,62.03930215,5.25,'11111222,11111222,11111222' 
TABS,ioos:station:wmo:42047:1,2006-09-04T02:30:00Z,27.8966,-93.5973,4.0,3.763110416,80.36206351,5.34,'11111222,11111222,11111222' 
TABS,ioos:station:wmo:42047:1,2006-09-04T03:00:00Z,27.8966,-93.5973,4.0,3.535703607,70.84723409,5.76,'11111222,11111222,11111222' 
TABS,ioos:station:wmo:42047:1,2006-09-04T03:30:00Z,27.8966,-93.5973,4.0,3.500757061,72.03048136,4.77,'11111222,11111222,11111222' 
TABS,ioos:station:wmo:42047:1,2006-09-04T04:00:00Z,27.8966,-93.5973,4.0,4.021405227,76.48171056,5.53,'11111222,11111222,11111222' 
TABS,ioos:station:wmo:42047:1,2006-09-04T04:30:00Z,27.8966,-93.5973,4.0,3.775208604,68.39549944,5.14,'11111222,11111222,11111222' 
TABS,ioos:station:wmo:42047:1,2006-09-04T05:00:00Z,27.8966,-93.5973,4.0,4.082707435,77.1206988,5.54,'11111222,11111222,11111222' 
TABS,ioos:station:wmo:42047:1,2006-09-04T05:30:00Z,27.8966,-93.5973,4.0,4.096840246,75.14927551,5.7,'11111222,11111222,11111222' 
TABS,ioos:station:wmo:42047:1,2006-09-04T06:00:00Z,27.8966,-93.5973,4.0,4.23211531,85.66318444,5.77,'11111222,11111222,11111222' 
TABS,ioos:station:wmo:42047:1,2006-09-04T06:30:00Z,27.8966,-93.5973,4.0,4.297033861,100.8657781,5.6,'11111222,11111222,11111222' 
TABS,ioos:station:wmo:42047:1,2006-09-04T07:00:00Z,27.8966,-93.5973,4.0,3.931539139,98.33660282,5.27,'11111222,11111222,11111222' 
TABS,ioos:station:wmo:42047:1,2006-09-04T07:30:00Z,27.8966,-93.5973,4.0,3.950354414,107.3803619,5.36,'11111222,11111222,11111222' 
TABS,ioos:station:wmo:42047:1,2006-09-04T08:00:00Z,27.8966,-93.5973,4.0,3.747212297,106.1138015,5.37,'11111222,11111222,11111222' 
TABS,ioos:station:wmo:42047:1,2006-09-04T08:30:00Z,27.8966,-93.5973,4.0,3.710485143,109.8515545,5.18,'11111222,11111222,11111222' 
TABS,ioos:station:wmo:42047:1,2006-09-04T09:00:00Z,27.8966,-93.5973,4.0,3.152919282,107.9181282,4.87,'11111222,11111222,11111222' 
TABS,ioos:station:wmo:42047:1,2006-09-04T09:30:00Z,27.8966,-93.5973,4.0,2.816558183,100.4326072,4.19,'11111222,11111222,11111222' 
TABS,ioos:station:wmo:42047:1,2006-09-04T10:00:00Z,27.8966,-93.5973,4.0,2.874526048,108.2462328,4.17,'11111222,11111222,11111222' 
TABS,ioos:station:wmo:42047:1,2006-09-04T10:30:00Z,27.8966,-93.5973,4.0,3.130447252,105.9457795,4.71,'11111222,11111222,11111222' 
TABS,ioos:station:wmo:42047:1,2006-09-04T11:00:00Z,27.8966,-93.5973,4.0,2.914807026,106.1347843,4.31,'11111222,11111222,11111222' 
TABS,ioos:station:wmo:42047:1,2006-09-04T11:30:00Z,27.8966,-93.5973,4.0,2.77259806,87.51900827,4.33,'11111222,11111222,11111222' 
TABS,ioos:station:wmo:42047:1,2006-09-04T12:00:00Z,27.8966,-93.5973,4.0,2.600019231,90.2207877,3.88,'11111222,11111222,11111222' 
TABS,ioos:station:wmo:42047:1,2006-09-04T12:30:00Z,27.8966,-93.5973,4.0,2.685386378,86.37001671,4.12,'11111222,11111222,11111222' 
TABS,ioos:station:wmo:42047:1,2006-09-04T13:00:00Z,27.8966,-93.5973,4.0,2.944910865,86.69025055,4.31,'11111222,11111222,11111222' 
TABS,ioos:station:wmo:42047:1,2006-09-04T13:30:00Z,27.8966,-93.5973,4.0,2.74,90.00042092,4.43,'11111222,11111222,11111222' 
TABS,ioos:station:wmo:42047:1,2006-09-04T14:00:00Z,27.8966,-93.5973,4.0,3.014796842,93.23295347,4.17,'11111222,11111222,11111222' 
TABS,ioos:station:wmo:42047:1,2006-09-04T14:30:00Z,27.8966,-93.5973,4.0,3.050147537,90.56396647,4.24,'11111222,11111222,11111222' 
TABS,ioos:station:wmo:42047:1,2006-09-04T15:00:00Z,27.8966,-93.5973,4.0,2.934655005,79.99162268,3.76,'11111222,11111222,11111222' 
TABS,ioos:station:wmo:42047:1,2006-09-04T15:30:00Z,27.8966,-93.5973,4.0,2.855906161,79.71270085,4.2,'11111222,11111222,11111222' 
TABS,ioos:station:wmo:42047:1,2006-09-04T16:00:00Z,27.8966,-93.5973,4.0,3.347730575,78.45471859,4.37,'11111222,11111222,11111222' 
TABS,ioos:station:wmo:42047:1,2006-09-04T16:30:00Z,27.8966,-93.5973,4.0,3.108649224,96.27953678,4.13,'11111222,11111222,11111222' 
TABS,ioos:station:wmo:42047:1,2006-09-04T17:00:00Z,27.8966,-93.5973,4.0,3.112073264,103.1882,4.59,'11111222,11111222,11111222' 
TABS,ioos:station:wmo:42047:1,2006-09-04T17:30:00Z,27.8966,-93.5973,4.0,2.981358751,95.00344692,4.07,'11111222,11111222,11111222' 
TABS,ioos:station:wmo:42047:1,2006-09-04T18:00:00Z,27.8966,-93.5973,4.0,2.796855377,106.621139,4.09,'11111222,11111222,11111222' 
TABS,ioos:station:wmo:42047:1,2006-09-04T18:30:00Z,27.8966,-93.5973,4.0,2.954894245,106.7181984,4.77,'11111222,11111222,11111222' 